Station FILA2 - Flat Island Light, AK Image indicating link to RSS feed of recent meteorological observations for station FILA2


Conditions at FILA2 as of
(3:30 am AKDT)
1130 GMT on 04/21/2024:
     

Click on the graph icon in the table below to see a time series plot of the last five days of that observation.

5-day plot - Wind Direction Wind Direction (WDIR): NE ( 50 deg true )
5-day plot - Wind Speed Wind Speed (WSPD): 4 kts
5-day plot - Wind Gust Wind Gust (GST): 4 kts
5-day plot - Atmospheric Pressure Atmospheric Pressure (PRES):29.75 in
5-day plot - Air Temperature Air Temperature (ATMP): 39.2 °F
5-day plot - Dew Point Dew Point (DEWP): 37.0 °F
5-day plot - Wind Chill Wind Chill (CHILL): 35.8 °F
5-day plot - Wind Speed at 10 Meters Wind Speed at 10 meters (WSPD10M): 4 kts
5-day plot - Wind Speed at 20 Meters Wind Speed at 20 meters (WSPD20M): 4 kts
5-day plot -  Wind Speed, Wind Gust and Atmospheric Pressure Combined plot of Wind Speed, Gust, and Air Pressure
Continuous Winds
TIME
(AKDT)
5-day plot - Wind Direction WDIR 5-day plot - Wind Speed WSPD
3:30 amE ( 84 deg ) 3 kts
3:20 amNE ( 49 deg ) 3 kts
3:10 amNE ( 51 deg ) 3 kts
3:00 amNE ( 51 deg ) 3 kts
2:50 amNNE ( 26 deg ) 4 kts
2:40 amN ( 4 deg ) 5 kts
 
Peak gust during the measurement hour
TIME
(AKDT)
5-day plot - Gust Direction GDR 5-day plot - Gust Speed GST
2:53 amNE ( 40 deg ) 6 kts
Previous observations
TIME
(AKDT)
5-day plot - Wind Direction
WDIR
 
5-day plot - Wind Speed
WSPD
kts
5-day plot - Wind Gust
GST
kts
5-day plot - Wave Height
WVHT
ft
5-day plot - Dominant Wave Period
DPD
sec
5-day plot - Average Wave Period
APD
sec
5-day plot - Mean Wave Direction
MWD
 
5-day plot - Atmospheric Pressure
PRES
in
5-day plot - Pressure Tendency
PTDY
in
5-day plot - Air Temperature
ATMP
°F
5-day plot - Water Temperature
WTMP
°F
5-day plot - Dew Point
DEWP
°F
5-day plot - Salinity
SAL
psu
5-day plot - Visibility
VIS
nmi
5-day plot - Tide (above MLLW)
TIDE
ft
2024-04-21 03:00 amENE 2 3----29.75+0.00 39.7- 36.9---
2024-04-21 02:30 amNNE 6 7----29.75- 40.3- 36.9---
2024-04-21 02:00 am N 7 8----29.75-0.01 41.0- 36.3---
2024-04-21 01:30 amNNE 9 10----29.75- 39.7- 37.0---
2024-04-21 01:00 am E 4 5----29.75+0.00 40.1- 36.9---
2024-04-21 12:30 am E 7 9----29.75- 41.0- 36.0---
2024-04-21 12:00 am E 9 10----29.76+0.00 41.7- 34.3---
2024-04-20 11:30 pm E 5 7----29.76- 39.9- 36.1---
2024-04-20 11:00 pmENE 6 7----29.76+0.00 40.5- 36.0---
2024-04-20 10:30 pm E 6 7----29.76- 41.5- 34.7---
2024-04-20 10:00 pm E 6 7----29.76+0.00 41.9- 35.1---
2024-04-20 09:30 pmESE 2 3----29.76- 41.2- 37.6---
2024-04-20 09:00 pmENE 5 6----29.76-0.02 43.2- 35.2---
2024-04-20 08:30 pm E 6 6----29.77- 43.0- 36.3---
2024-04-20 08:00 pm E 11 12----29.76-0.04 43.9- 34.5---
2024-04-20 07:30 pmENE 14 16----29.76- 44.8- 33.4---
2024-04-20 07:00 pmENE 14 16----29.77-0.04 44.6- 34.0---
2024-04-20 06:30 pm NE 11 13----29.78- 44.4- 35.4---
2024-04-20 06:00 pm NE 11 12----29.78-0.04 43.7- 36.9---
2024-04-20 05:30 pm NE 9 10----29.79- 42.8- 37.2---
2024-04-20 05:00 pm NE 9 11----29.80-0.03 42.6- 37.4---
2024-04-20 04:30 pmNNE 10 10----29.81- 42.6- 37.4---
2024-04-20 04:00 pm NE 14 16----29.81-0.02 42.1- 37.9---
2024-04-20 03:30 pm NE 12 13----29.82- 42.4- 37.8---
2024-04-20 03:00 pmNNE 12 13----29.82-0.02 42.4- 37.9---
2024-04-20 02:30 pm N 9 10----29.83- 41.9- 37.8---
2024-04-20 02:00 pmNNE 5 6----29.83+0.00 40.6- 37.9---
2024-04-20 01:30 pm NE 11 12----29.83- 40.3- 37.4---
2024-04-20 01:00 pmENE 5 6----29.83+0.00 40.1- 37.0---
2024-04-20 12:30 pmENE 7 8----29.84- 40.3- 36.7---
2024-04-20 12:00 pm E 10 12----29.84-0.01 40.8- 36.5---
2024-04-20 11:30 am E 7 10----29.84- 41.9- 35.8---
2024-04-20 11:00 am E 11 14----29.84-0.01 45.1- 32.2---
2024-04-20 10:30 amESE 4 4----29.84- 44.1- 35.2---
2024-04-20 10:00 am N 5 5----29.83-0.03 41.2- 37.6---
2024-04-20 09:30 am E 1 2----29.84- 42.3- 36.3---
2024-04-20 09:00 am NE 5 6----29.85-0.01 41.9- 36.3---
2024-04-20 08:30 am E 1 2----29.85- 40.5- 38.3---
2024-04-20 08:00 amESE 5 6----29.85-0.02 40.6- 37.2---
2024-04-20 07:30 am E 3 4----29.85- 40.6- 36.5---
2024-04-20 07:00 amENE 3 4----29.86-0.03 41.4- 36.5---
2024-04-20 06:30 am SE 4 6----29.86- 41.9- 36.0---
2024-04-20 06:00 am E 8 13----29.86-0.04 42.6- 35.4---
2024-04-20 05:30 amESE 4 6----29.87- 43.0- 34.0---
2024-04-20 05:00 amENE 11 14----29.87-0.04 44.6- 30.0---
2024-04-20 04:30 am E 4 5----29.89- 39.4- 37.0---
2024-04-20 04:00 am E 3 4----29.89-0.04 41.7- 35.4---